Weather History for Milford, UT

Change the Weather History Date:

Saturday, February 1, 2014

  Actual Average Record
Temperature  
Mean Temperature 20 °F -  
Max Temperature 32 °F 41 °F 63 °F (2003)
Min Temperature 7 °F 18 °F -5 °F (2007)
Degree Days  
Heating Degree Days 46    
Moisture  
Dew Point 19 °F    
Average Humidity 81    
Maximum Humidity 96    
Minimum Humidity 43    
Precipitation  
Precipitation 0.04 in - - ()
Sea Level Pressure  
Sea Level Pressure 30.02 in    
Wind  
Wind Speed 13 mph (North)    
Max Wind Speed 21 mph    
Max Gust Speed -    
Visibility 7 miles    
Events Snow    
Averages and records for this station are not official NWS values.
T = Trace of Precipitation, MM = Missing Value Source: NWS Daily Summary

Daily Weather History Graph

Daily Weather History Graph

Search for Another Location

Airport:

Trip Planner

Search our weather history database for the weather conditions in past years. The results will help you decide how hot, cold, wet, or windy it might be!

Date:

Astronomy

Feb. 01, 2014 Rise Set
Actual Time 7:37 AM MST 5:54 PM MST
Civil Twilight 7:09 AM MST 6:22 PM MST
Nautical Twilight 6:37 AM MST 6:54 PM MST
Astronomical Twilight 6:06 AM MST 7:25 PM MST
Moon 8:31 AM MST (2/1) 8:31 PM MST (2/1)
Length of Visible Light 11h 13m
Length of Day
10h 17m
Waxing Crescent, 5% of the Moon is Illuminated
Feb 1
Waxing Crescent
Feb 6
First Quarter
Feb 14
Full
Feb 22
Last Quarter
Mar 1
New

Hourly Weather History & Observations

Time (MST) Temp. Windchill Dew Point Humidity Pressure Visibility Wind Dir Wind Speed Gust Speed Precip Events Conditions
12:08 AM 28.0 °F 17.0 °F 26.1 °F 92% 29.86 in 1.8 mi North 13.8 mph - 0.01 in Snow Light Snow
12:10 AM 28.0 °F 17.0 °F 26.1 °F 92% 29.86 in 3.0 mi North 13.8 mph - 0.01 in Snow Light Snow
12:20 AM 27.0 °F 14.3 °F 25.0 °F 92% 29.86 in 4.0 mi North 17.3 mph - 0.01 in Snow Light Snow
12:31 AM 27.0 °F 14.7 °F 24.1 °F 89% 29.86 in 2.5 mi North 16.1 mph - 0.01 in Snow Light Snow
12:44 AM 26.1 °F 12.0 °F 24.1 °F 92% 29.86 in 1.5 mi NNW 20.7 mph - 0.01 in Snow Light Snow
12:52 AM 26.1 °F 12.3 °F 24.1 °F 92% 29.91 in 0.8 mi North 19.6 mph - 0.02 in Snow Light Snow
1:08 AM 26.1 °F 13.1 °F 24.1 °F 92% 29.87 in 1.0 mi North 17.3 mph - 0.00 in Snow Light Snow
1:22 AM 26.1 °F 12.0 °F 23.0 °F 88% 29.88 in 1.8 mi North 20.7 mph - 0.01 in Snow Light Snow
1:27 AM 26.1 °F 12.7 °F 21.9 °F 84% 29.88 in 2.5 mi North 18.4 mph - 0.01 in Snow Light Snow
1:38 AM 26.1 °F 13.1 °F 21.9 °F 84% 29.88 in 4.0 mi North 17.3 mph - 0.01 in Snow Light Snow
1:47 AM 26.1 °F 13.1 °F 21.9 °F 84% 29.88 in 7.0 mi North 17.3 mph - 0.01 in Snow Light Snow
1:52 AM 26.1 °F 13.6 °F 21.9 °F 84% 29.92 in 8.0 mi North 16.1 mph - 0.01 in Snow Light Snow
2:07 AM 26.1 °F 12.3 °F 23.0 °F 88% 29.89 in 6.0 mi North 19.6 mph - 0.00 in Snow Light Snow
2:34 AM 25.0 °F 13.6 °F 23.0 °F 92% 29.90 in 4.0 mi North 12.7 mph - 0.00 in Snow Light Snow
2:45 AM 25.0 °F 14.2 °F 23.0 °F 92% 29.90 in 2.5 mi North 11.5 mph - 0.00 in Snow Light Snow
2:49 AM 24.8 °F 14.6 °F 23.0 °F 93% 29.90 in 3.0 mi North 10.4 mph - 0.00 in Snow Light Snow
2:52 AM 25.0 °F 14.8 °F 23.0 °F 92% 29.94 in 3.0 mi North 10.4 mph - 0.00 in Snow Light Snow
2:58 AM 25.0 °F 15.5 °F 24.1 °F 96% 29.90 in 2.5 mi North 9.2 mph - 0.00 in Snow Light Snow
3:24 AM 25.0 °F 15.5 °F 23.0 °F 92% 29.91 in 3.0 mi NNE 9.2 mph - 0.00 in Snow Light Snow
3:52 AM 24.1 °F 14.4 °F 21.0 °F 88% 29.96 in 10.0 mi NE 9.2 mph - 0.00 in   Overcast
4:52 AM 18.0 °F 6.1 °F 14.0 °F 84% 30.00 in 10.0 mi NNW 10.4 mph - N/A   Scattered Clouds
5:52 AM 12.0 °F 0.5 °F 10.0 °F 92% 30.04 in 10.0 mi North 8.1 mph - N/A   Clear
6:52 AM 7.0 °F -6.6 °F 5.0 °F 92% 30.09 in 10.0 mi NNW 9.2 mph - N/A   Clear
7:52 AM 10.0 °F 0.4 °F 7.0 °F 87% 30.10 in 10.0 mi NNE 5.8 mph - N/A   Clear
8:52 AM 17.1 °F 11.7 °F 14.0 °F 88% 30.09 in 10.0 mi NNE 3.5 mph - N/A   Clear
9:52 AM 19.9 °F - 16.0 °F 85% 30.12 in 10.0 mi Calm Calm - N/A   Partly Cloudy
10:52 AM 27.0 °F 21.6 °F 18.0 °F 69% 30.10 in 10.0 mi NE 4.6 mph - N/A   Clear
11:52 AM 28.9 °F 21.1 °F 19.0 °F 67% 30.09 in 10.0 mi North 8.1 mph - N/A   Clear
12:52 PM 30.0 °F 23.2 °F 19.9 °F 66% 30.09 in 10.0 mi NNE 6.9 mph - N/A   Clear
1:52 PM 30.9 °F 22.2 °F 19.9 °F 64% 30.06 in 10.0 mi NNE 10.4 mph - N/A   Clear
2:52 PM 30.9 °F 21.7 °F 19.0 °F 61% 30.06 in 10.0 mi NE 11.5 mph - 0.00 in   Clear
3:52 PM 30.9 °F 22.2 °F 19.0 °F 61% 30.08 in 10.0 mi NNE 10.4 mph - N/A   Clear
4:52 PM 32.0 °F 24.2 °F 18.0 °F 56% 30.12 in 10.0 mi NNE 9.2 mph - N/A   Mostly Cloudy
5:52 PM 26.1 °F 18.4 °F 17.1 °F 69% 30.17 in 10.0 mi North 6.9 mph - N/A   Overcast
6:52 PM 23.0 °F 13.9 °F 16.0 °F 74% 30.22 in 10.0 mi NNW 8.1 mph - N/A   Scattered Clouds
7:52 PM 19.0 °F 11.1 °F 15.1 °F 85% 30.24 in 10.0 mi NNW 5.8 mph - N/A   Clear
8:52 PM 16.0 °F - 12.9 °F 88% 30.22 in 10.0 mi Calm Calm - N/A   Clear
9:52 PM 19.0 °F 13.9 °F 15.1 °F 85% 30.20 in 10.0 mi SSW 3.5 mph - N/A   Clear
10:52 PM 17.1 °F 6.6 °F 12.0 °F 81% 30.19 in 10.0 mi WNW 8.1 mph - N/A   Clear
11:52 PM 18.0 °F 9.8 °F 12.0 °F 78% 30.17 in 10.0 mi WNW 5.8 mph - N/A   Clear